Location: Saratoga Springs
(43.0831°N, 73.7850°W)
Time: 03:06:11
(UTC-04:00)

Vanguard 2 Rocket - Pass Details

Date: 23 April 2024
Orbit: 556 x 3304 km, 32.9° (Epoch: 17 May)

Event Time Altitude Azimuth Distance (km) Brightness Sun altitude
Rises 04:44:09 0° 279° (W) 7,288 11.1 -13.3°
Reaches altitude 10° 04:51:12 10° 266° (W) 6,131 10.6 -12.2°
Maximum altitude 05:02:41 20° 228° (SW) 4,761 9.9 -10.4°
Drops below altitude 10° 05:11:59 10° 188° (S) 4,822 10.3 -8.9°
Sets 05:16:38 0° 172° (S) 5,360 10.6 -8.1°
